When you browse on this site, cookies collect data to enhance your experience and personalize the content and advertising you see.
Visit our Privacy Policy to learn more. By continuing to use the site, you agree to this use of cookies and data.
  • In Austria
  • List of Countries
  • For 7 days
  • Water Temperature
  • Satellite Maps
  • Weather Map
  • News
  • Weather Widgets
  • user-avatar
    Login

    Hourly Weather Rzeszyce

    Today, 10 December, Monday

    Time Temperature Precipitation Wind Pressure Humidity
    00:00 +3°C° 0.2 mm 5 mps 739 mmHg 87%
    01:00 +4°C° 0 mm 4 mps 739 mmHg 88%
    02:00 +3°C° 0.3 mm 5 mps 739 mmHg 87%
    03:00 +3°C° 0.3 mm 5 mps 739 mmHg 86%
    04:00 +3°C° 0.3 mm 5 mps 740 mmHg 85%
    05:00 +3°C° 0.4 mm 6 mps 740 mmHg 84%
    06:00 +3°C° 0.4 mm 6 mps 741 mmHg 83%
    07:00 +3°C° 0.4 mm 6 mps 741 mmHg 82%
    08:00 +3°C° 0.3 mm 7 mps 742 mmHg 79%
    09:00 +3°C° 0.3 mm 7 mps 742 mmHg 76%
    10:00 +2°C° 0.3 mm 8 mps 743 mmHg 73%
    11:00 +3°C° 0.1 mm 7 mps 743 mmHg 71%
    12:00 +3°C° 0.1 mm 7 mps 744 mmHg 68%
    13:00 +3°C° 0.1 mm 7 mps 744 mmHg 66%
    14:00 +3°C° 0.1 mm 6 mps 745 mmHg 68%
    15:00 +2°C° 0.1 mm 6 mps 745 mmHg 69%
    16:00 +2°C° 0.1 mm 5 mps 746 mmHg 71%
    17:00 +2°C° 0.1 mm 5 mps 746 mmHg 72%
    18:00 +1°C° 0.1 mm 5 mps 746 mmHg 74%
    19:00 +1°C° 0.1 mm 5 mps 746 mmHg 75%
    20:00 +1°C° 0.1 mm 5 mps 746 mmHg 77%
    21:00 0°C° 0.1 mm 5 mps 746 mmHg 79%
    22:00 0°C° 0.1 mm 5 mps 747 mmHg 80%
    23:00 0°C° 0 mm 4 mps 747 mmHg 82%

    Tomorrow, 11 December, Tuesday

    Time Temperature Precipitation Wind Pressure Humidity
    00:00 -1°C° 0 mm 4 mps 747 mmHg 84%
    01:00 -1°C° 0 mm 4 mps 747 mmHg 86%
    02:00 -1°C° 0 mm 4 mps 747 mmHg 87%
    03:00 -1°C° 0 mm 4 mps 747 mmHg 89%
    04:00 -2°C° 0 mm 4 mps 747 mmHg 90%
    05:00 -1°C° 0 mm 3 mps 747 mmHg 91%
    06:00 -1°C° 0 mm 3 mps 747 mmHg 91%
    07:00 -1°C° 0 mm 3 mps 747 mmHg 92%
    08:00 0°C° 0.1 mm 3 mps 748 mmHg 90%
    09:00 +1°C° 0.1 mm 3 mps 748 mmHg 87%
    10:00 +1°C° 0.1 mm 3 mps 748 mmHg 85%
    11:00 +2°C° 0.1 mm 3 mps 748 mmHg 85%
    12:00 +2°C° 0.1 mm 3 mps 748 mmHg 84%
    13:00 +3°C° 0.1 mm 2 mps 748 mmHg 84%
    14:00 +3°C° 0.1 mm 2 mps 749 mmHg 86%
    15:00 +2°C° 0.1 mm 2 mps 749 mmHg 88%
    16:00 +2°C° 0.1 mm 2 mps 749 mmHg 90%
    17:00 +2°C° 0.1 mm 2 mps 750 mmHg 90%
    18:00 +2°C° 0.1 mm 2 mps 750 mmHg 90%
    19:00 +2°C° 0.1 mm 2 mps 750 mmHg 91%
    20:00 +1°C° 0 mm 2 mps 751 mmHg 91%
    21:00 +1°C° 0 mm 2 mps 751 mmHg 92%
    22:00 +1°C° 0 mm 2 mps 751 mmHg 92%
    23:00 +1°C° 0 mm 2 mps 752 mmHg 92%

    Day after tomorrow, 12 December, Wednesday

    Time Temperature Precipitation Wind Pressure Humidity
    00:00 -1°C° 0 mm 2 mps 752 mmHg 93%
    01:00 -1°C° 0 mm 2 mps 753 mmHg 93%
    02:00 -1°C° 0 mm 3 mps 753 mmHg 93%
    03:00 -1°C° 0 mm 3 mps 753 mmHg 93%
    04:00 -1°C° 0 mm 3 mps 753 mmHg 92%
    05:00 -1°C° 0 mm 3 mps 754 mmHg 92%
    06:00 -1°C° 0 mm 3 mps 754 mmHg 91%
    07:00 -1°C° 0 mm 3 mps 755 mmHg 91%
    08:00 -1°C° 0 mm 3 mps 755 mmHg 88%
    09:00 -1°C° 0 mm 3 mps 756 mmHg 86%
    10:00 0°C° 0 mm 3 mps 756 mmHg 83%
    11:00 0°C° 0 mm 3 mps 756 mmHg 81%
    12:00 +1°C° 0 mm 3 mps 756 mmHg 80%
    13:00 +1°C° 0 mm 3 mps 756 mmHg 78%
    14:00 +1°C° 0 mm 2 mps 756 mmHg 81%
    15:00 -1°C° 0 mm 2 mps 757 mmHg 84%
    16:00 -1°C° 0 mm 2 mps 757 mmHg 87%
    17:00 -2°C° 0 mm 2 mps 757 mmHg 88%
    18:00 -2°C° 0 mm 2 mps 757 mmHg 88%
    19:00 -2°C° 0 mm 2 mps 757 mmHg 89%
    20:00 -2°C° 0 mm 2 mps 757 mmHg 89%
    21:00 -2°C° 0 mm 2 mps 758 mmHg 90%
    22:00 -2°C° 0 mm 2 mps 758 mmHg 90%
    23:00 -2°C° 0 mm 2 mps 758 mmHg 91%

    13 December, Thursday

    Time Temperature Precipitation Wind Pressure Humidity
    00:00 -2°C° 0 mm 2 mps 758 mmHg 91%
    01:00 -2°C° 0 mm 2 mps 758 mmHg 92%
    02:00 -2°C° 0 mm 2 mps 758 mmHg 92%
    03:00 -2°C° 0 mm 2 mps 758 mmHg 91%
    04:00 -2°C° 0 mm 2 mps 757 mmHg 91%
    05:00 -2°C° 0 mm 2 mps 757 mmHg 91%
    06:00 -2°C° 0 mm 2 mps 757 mmHg 91%
    07:00 -2°C° 0 mm 2 mps 757 mmHg 92%
    08:00 -1°C° 0 mm 3 mps 757 mmHg 90%
    09:00 -1°C° 0 mm 3 mps 757 mmHg 88%
    10:00 -1°C° 0 mm 3 mps 757 mmHg 86%
    11:00 -1°C° 0 mm 3 mps 757 mmHg 84%
    12:00 0°C° 0 mm 3 mps 757 mmHg 83%
    13:00 0°C° 0 mm 3 mps 757 mmHg 81%
    14:00 0°C° 0 mm 3 mps 757 mmHg 83%
    15:00 -1°C° 0 mm 2 mps 757 mmHg 84%
    16:00 -1°C° 0 mm 2 mps 757 mmHg 86%
    17:00 -1°C° 0 mm 2 mps 757 mmHg 86%
    18:00 -1°C° 0 mm 2 mps 757 mmHg 87%
    19:00 -1°C° 0 mm 2 mps 757 mmHg 87%
    20:00 -1°C° 0 mm 2 mps 757 mmHg 88%
    21:00 -2°C° 0 mm 2 mps 758 mmHg 88%
    22:00 -2°C° 0 mm 2 mps 758 mmHg 88%
    23:00 -2°C° 0 mm 2 mps 758 mmHg 89%

    14 December, Friday

    Time Temperature Precipitation Wind Pressure Humidity
    00:00 -2°C° 0 mm 2 mps 758 mmHg 89%
    01:00 -2°C° 0 mm 2 mps 758 mmHg 89%
    02:00 0°C° 0 mm 1 mps 759 mmHg 90%
    03:00 0°C° 0 mm 1 mps 759 mmHg 90%
    04:00 0°C° 0 mm 1 mps 759 mmHg 91%
    05:00 0°C° 0 mm 1 mps 759 mmHg 91%
    06:00 0°C° 0 mm 1 mps 760 mmHg 90%
    07:00 0°C° 0 mm 1 mps 760 mmHg 90%
    08:00 +1°C° 0 mm 1 mps 760 mmHg 89%
    09:00 +1°C° 0 mm 1 mps 761 mmHg 88%
    10:00 +1°C° 0 mm 1 mps 762 mmHg 87%
    11:00 +1°C° 0 mm 1 mps 762 mmHg 85%
    12:00 +2°C° 0 mm 1 mps 762 mmHg 84%
    13:00 +2°C° 0 mm 1 mps 762 mmHg 83%
    14:00 +1°C° 0 mm 1 mps 762 mmHg 86%
    15:00 -1°C° 0 mm 2 mps 763 mmHg 89%
    16:00 -2°C° 0 mm 2 mps 763 mmHg 91%
    17:00 -2°C° 0 mm 2 mps 764 mmHg 91%
    18:00 -2°C° 0 mm 2 mps 764 mmHg 92%
    19:00 -2°C° 0 mm 2 mps 764 mmHg 92%
    20:00 -2°C° 0 mm 2 mps 764 mmHg 91%
    21:00 -2°C° 0 mm 2 mps 765 mmHg 91%
    22:00 -2°C° 0 mm 2 mps 765 mmHg 91%
    23:00 -2°C° 0 mm 2 mps 765 mmHg 90%

    15 December, Saturday

    Time Temperature Precipitation Wind Pressure Humidity
    00:00 -2°C° 0 mm 2 mps 765 mmHg 90%
    01:00 0°C° 0 mm 1 mps 766 mmHg 89%
    02:00 -2°C° 0 mm 2 mps 766 mmHg 89%
    03:00 -2°C° 0 mm 2 mps 766 mmHg 88%
    04:00 -2°C° 0 mm 2 mps 766 mmHg 88%
    05:00 -2°C° 0 mm 2 mps 766 mmHg 87%
    06:00 -2°C° 0 mm 2 mps 767 mmHg 87%
    07:00 -2°C° 0 mm 2 mps 767 mmHg 87%
    08:00 -1°C° 0 mm 2 mps 767 mmHg 86%
    09:00 -1°C° 0 mm 2 mps 767 mmHg 84%
    10:00 -1°C° 0 mm 3 mps 768 mmHg 82%
    11:00 -1°C° 0 mm 3 mps 768 mmHg 80%
    12:00 -1°C° 0 mm 3 mps 768 mmHg 77%
    13:00 0°C° 0 mm 3 mps 768 mmHg 74%
    14:00 -1°C° 0 mm 3 mps 768 mmHg 76%
    15:00 -1°C° 0 mm 2 mps 768 mmHg 78%
    16:00 -2°C° 0 mm 2 mps 768 mmHg 80%
    17:00 -2°C° 0 mm 2 mps 768 mmHg 81%
    18:00 -2°C° 0 mm 2 mps 768 mmHg 83%
    19:00 -3°C° 0 mm 2 mps 769 mmHg 84%
    20:00 -3°C° 0 mm 2 mps 769 mmHg 85%
    21:00 -4°C° 0 mm 3 mps 769 mmHg 86%
    22:00 -4°C° 0 mm 3 mps 769 mmHg 87%
    23:00 -4°C° 0 mm 3 mps 769 mmHg 88%
    Show more